Wind_Speed
55 55 56 55 55 56 56 57 58 57 57 57 57 59 60 61 62 62 63 63 63 63 62 62 61 60 59 58 56 55 54 53 52 51 51 49 49 47
54 54 55 55 55 55 56 56 57 58 57 57 57 58 60 61 62 63 63 64 64 64 64 64 63 62 61 60 59 58 57 56 55 54 53 51 50 49
53 54 54 54 54 54 55 56 56 57 57 57 57 58 58 60 62 63 64 64 64 64 64 65 65 64 63 63 61 60 59 58 56 56 55 54 52 50
53 53 53 53 53 53 54 54 55 56 57 57 57 57 58 59 60 61 63 63 63 64 65 66 66 65 65 64 63 62 61 59 58 57 56 55 53 52
53 53 53 53 53 52 53 53 54 55 57 57 57 57 58 59 59 60 62 63 63 64 65 66 66 66 66 66 65 63 62 61 60 58 57 56 55 55
53 54 54 54 54 54 54 54 54 54 55 56 56 57 57 58 59 60 61 62 63 64 65 66 67 67 67 67 66 65 64 63 62 60 59 58 57 56
51 53 53 54 55 55 55 55 54 53 54 54 55 56 56 57 58 59 60 61 62 64 65 67 67 67 66 66 66 66 66 65 64 63 62 60 58 57
49 51 53 53 53 54 55 55 55 54 54 54 55 55 56 56 56 56 58 60 61 62 64 65 66 67 67 67 67 67 66 65 64 64 63 62 61 60
47 49 51 52 52 53 54 54 54 54 54 54 54 54 55 56 56 56 56 57 59 60 62 63 64 66 66 66 67 67 67 66 64 64 64 64 63 62
45 47 49 51 52 52 53 54 53 53 53 54 54 54 54 55 55 56 56 56 57 57 59 61 62 63 65 66 66 66 67 67 66 66 65 65 64 63
43 45 46 48 50 51 52 52 53 52 52 53 53 53 54 54 55 56 56 56 56 57 58 59 60 61 62 63 64 66 66 67 66 66 66 65 65 64
42 43 44 45 47 49 50 50 50 51 51 51 51 51 51 52 52 53 54 54 55 55 56 57 58 59 60 61 63 64 65 66 67 66 66 66 65 64
41 42 42 43 44 45 47 48 48 49 49 49 50 50 50 50 51 51 52 53 52 52 53 54 55 57 59 60 61 63 64 64 65 65 65 65 64 64
38 39 41 42 43 43 44 45 45 46 47 48 48 49 49 48 49 49 50 51 51 51 52 53 54 55 56 57 57 59 60 62 63 63 63 63 63 63
36 37 38 39 40 41 42 43 43 43 43 45 46 46 46 46 47 48 49 49 50 50 51 52 52 52 53 54 55 56 57 58 59 60 61 61 61 62
34 34 35 36 37 38 40 41 41 41 41 42 42 43 44 45 45 46 47 47 48 49 50 50 51 52 52 53 54 54 55 56 56 57 58 58 58 59
31 32 33 33 34 35 37 38 39 40 40 40 40 40 41 42 43 43 44 45 46 47 48 49 50 51 51 52 52 52 53 54 53 53 54 54 55 56
29 29 30 31 32 33 34 35 36 38 38 39 39 39 39 40 40 40 41 42 44 45 46 47 47 48 49 50 50 50 51 51 52 52 52 52 52 53
29 29 29 29 30 31 32 33 35 36 37 38 38 37 37 38 39 40 40 41 41 42 43 44 45 45 46 47 48 49 48 48 49 51 51 51 51 52
28 28 28 28 28 29 30 31 32 33 35 36 36 36 37 38 38 39 39 39 39 39 40 41 42 43 44 45 45 46 46 46 47 47 48 48 49 49
27 27 27 27 26 27 27 28 29 30 31 32 33 35 36 36 36 36 37 37 37 37 38 38 39 40 41 42 42 43 43 43 44 44 45 46 46 46
25 25 25 24 24 24 25 26 27 28 28 30 31 31 32 32 33 33 33 34 35 35 35 36 37 38 39 39 38 39 40 41 41 42 43 44 43 43
23 23 23 23 23 22 23 24 25 26 27 27 28 28 29 30 31 32 32 32 32 32 32 33 34 35 36 37 37 37 38 39 40 40 40 40 40 39
Wind_Direction
257 257 257 257 257 256 256 255 255 253 252 252 251 250 249 248 248 247 247 247 246 247 246 246 246 247 247 248 248 249 250 251 252 253 254 255 256 257
256 256 256 256 256 256 256 256 255 255 253 252 251 251 250 249 248 247 246 247 246 246 246 246 246 246 247 248 248 249 250 251 252 253 254 255 256 257
256 256 256 256 255 255 255 255 255 254 253 252 252 251 251 250 249 248 246 246 246 246 246 246 246 246 247 248 248 249 249 250 251 252 254 255 256 257
255 255 255 254 254 255 255 255 255 254 254 253 252 251 250 250 250 249 247 246 246 246 246 245 245 246 246 247 248 248 248 249 250 251 252 254 255 256
255 255 254 254 253 254 254 255 254 254 254 253 252 251 250 250 249 249 248 248 247 247 246 245 245 246 246 246 247 247 248 248 249 250 251 253 254 256
256 255 254 253 253 253 254 254 255 254 254 254 253 251 251 251 250 249 249 249 248 248 247 246 246 246 245 246 247 247 247 248 248 249 250 252 253 255
257 255 254 254 254 254 255 255 255 255 255 254 254 252 252 252 252 251 250 249 249 248 247 247 246 246 246 246 246 246 247 247 248 249 250 251 252 253
258 256 255 254 254 254 255 255 256 256 255 255 254 254 253 253 253 253 251 249 249 248 248 247 246 246 246 246 246 247 247 247 248 249 250 250 252 253
259 257 255 253 254 254 254 254 255 256 256 256 255 255 255 253 253 253 252 251 249 248 248 247 246 246 245 245 246 246 247 247 248 248 250 251 252 253
260 258 256 255 254 254 254 254 255 255 256 256 256 256 256 255 254 253 252 251 249 248 248 248 246 246 245 245 245 246 247 247 248 248 250 251 251 252
262 260 258 256 255 254 254 254 254 255 255 256 255 256 256 255 255 253 252 251 250 249 249 249 248 247 246 246 246 246 247 248 248 248 249 249 250 251
264 262 260 258 257 255 254 254 254 253 253 254 255 255 254 254 254 253 252 251 251 250 250 249 248 247 247 247 247 247 247 247 248 248 249 250 250 251
266 263 262 260 259 257 254 254 254 254 253 253 253 253 253 253 253 252 252 251 250 250 250 250 249 249 248 248 247 247 247 247 248 248 249 250 250 251
267 265 263 261 259 257 256 255 255 254 253 252 251 252 252 252 252 252 251 250 250 250 250 250 250 250 249 248 248 247 248 248 248 248 248 249 251 252
269 267 265 262 259 256 256 254 253 253 253 252 252 251 250 250 251 251 251 250 249 249 250 251 250 250 249 248 247 247 248 248 248 249 249 250 252 253
270 269 266 263 260 258 256 255 253 253 253 252 252 251 251 250 250 251 251 251 250 250 250 250 249 249 249 248 247 247 247 248 248 248 249 250 251 252
271 271 268 265 263 260 257 256 254 253 252 252 251 250 251 251 251 252 252 251 251 251 251 249 249 249 249 248 247 248 247 247 247 249 249 249 250 251
272 271 269 267 265 262 260 258 256 253 252 251 250 250 250 251 252 252 252 251 251 251 251 250 249 249 248 247 246 246 246 247 247 247 249 249 250 252
273 273 271 269 267 264 262 260 257 254 251 251 250 250 251 251 252 251 252 252 251 251 250 249 250 249 248 247 246 246 246 246 247 247 248 250 251 253
275 275 273 271 269 266 264 260 257 255 253 251 251 250 250 252 253 252 252 252 250 249 249 248 249 249 248 247 245 245 245 246 246 247 249 250 251 252
276 275 274 272 270 268 264 260 256 254 254 253 251 251 251 252 252 252 252 252 251 250 249 249 249 249 247 245 245 244 244 245 247 248 249 249 250 252
277 275 273 271 269 267 264 260 257 255 254 253 253 252 251 250 249 249 250 250 250 250 250 250 249 247 246 245 244 244 245 246 247 248 249 250 251 252
279 275 270 267 266 265 264 261 258 256 256 254 253 251 250 250 250 249 249 249 249 250 251 251 250 248 248 246 245 246 247 248 249 249 250 250 250 251
Height
5579 5581 5584 5586 5588 5590 5593 5595 5599 5603 5608 5611 5613 5616 5619 5623 5628 5632 5637 5642 5646 5651 5656 5661 5665 5670 5674 5678 5682 5686 5689 5693 5696 5698 5701 5703 5705 5707
5563 5565 5568 5570 5572 5574 5577 5579 5582 5585 5590 5595 5597 5600 5603 5606 5610 5614 5619 5624 5629 5634 5639 5644 5649 5654 5659 5663 5667 5672 5675 5679 5682 5685 5688 5690 5692 5695
5548 5550 5552 5554 5557 5559 5561 5563 5566 5569 5573 5578 5580 5583 5586 5590 5593 5597 5602 5606 5612 5617 5622 5627 5632 5637 5642 5647 5652 5656 5660 5664 5667 5671 5674 5677 5679 5682
5532 5534 5537 5539 5541 5544 5546 5548 5550 5553 5556 5561 5564 5567 5570 5573 5576 5580 5584 5589 5594 5599 5604 5609 5615 5620 5625 5630 5635 5640 5644 5648 5652 5656 5660 5664 5666 5668
5517 5519 5521 5523 5526 5528 5530 5533 5535 5537 5540 5543 5547 5551 5554 5557 5560 5563 5567 5571 5576 5581 5586 5591 5597 5603 5608 5613 5618 5624 5629 5634 5638 5641 5645 5648 5652 5654
5501 5503 5506 5508 5510 5513 5515 5517 5519 5522 5524 5527 5531 5534 5537 5540 5543 5546 5550 5554 5559 5564 5568 5574 5579 5585 5591 5597 5603 5608 5612 5616 5620 5625 5629 5633 5637 5640
5486 5488 5490 5492 5494 5497 5499 5502 5504 5506 5509 5511 5514 5517 5521 5523 5526 5529 5533 5537 5542 5545 5550 5557 5563 5569 5573 5579 5584 5589 5594 5599 5604 5609 5613 5617 5621 5624
5471 5473 5474 5477 5479 5481 5484 5486 5488 5491 5493 5495 5498 5501 5505 5507 5510 5512 5516 5520 5526 5531 5533 5539 5544 5549 5555 5561 5566 5571 5576 5582 5587 5591 5596 5600 5604 5608
5457 5458 5459 5462 5463 5466 5468 5470 5473 5475 5477 5480 5483 5485 5489 5492 5494 5497 5499 5502 5508 5512 5515 5521 5526 5531 5537 5543 5548 5553 5559 5564 5569 5574 5578 5583 5587 5591
5442 5443 5445 5446 5448 5450 5452 5455 5457 5460 5463 5465 5468 5471 5472 5475 5477 5480 5483 5486 5491 5495 5498 5503 5508 5514 5520 5525 5530 5536 5541 5546 5551 5556 5561 5566 5570 5574
5429 5429 5430 5432 5433 5435 5437 5440 5443 5445 5447 5449 5452 5454 5456 5459 5461 5463 5467 5470 5475 5479 5482 5487 5492 5496 5501 5507 5513 5518 5523 5528 5533 5538 5543 5548 5553 5556
5416 5416 5417 5417 5418 5419 5421 5423 5427 5430 5432 5434 5436 5439 5441 5443 5446 5448 5451 5455 5459 5464 5467 5471 5475 5479 5485 5490 5495 5500 5505 5510 5515 5520 5525 5530 5534 5538
5403 5403 5403 5403 5404 5405 5406 5409 5412 5414 5416 5419 5421 5423 5426 5429 5431 5434 5437 5440 5444 5449 5453 5455 5459 5462 5467 5474 5478 5482 5487 5492 5497 5502 5507 5512 5517 5520
5390 5390 5390 5390 5391 5392 5393 5396 5398 5399 5401 5404 5406 5409 5412 5415 5417 5419 5422 5425 5429 5433 5437 5440 5444 5447 5452 5457 5462 5466 5470 5475 5480 5485 5490 5495 5499 5503
5379 5378 5378 5378 5378 5379 5381 5383 5384 5386 5388 5390 5393 5395 5398 5400 5403 5405 5408 5410 5414 5418 5421 5425 5429 5432 5436 5441 5446 5450 5454 5459 5463 5468 5473 5477 5482 5486
5368 5367 5366 5366 5366 5367 5369 5370 5372 5374 5375 5378 5380 5382 5385 5387 5389 5392 5394 5397 5400 5404 5407 5410 5414 5418 5422 5426 5431 5435 5439 5443 5448 5452 5456 5461 5465 5469
5358 5357 5356 5356 5356 5356 5357 5358 5360 5362 5363 5366 5368 5370 5372 5374 5377 5379 5381 5383 5387 5390 5394 5397 5400 5403 5407 5411 5416 5420 5424 5429 5433 5437 5441 5445 5450 5453
5348 5347 5347 5346 5346 5346 5346 5347 5349 5350 5352 5354 5356 5358 5361 5363 5365 5367 5369 5371 5374 5377 5380 5383 5386 5389 5393 5397 5402 5406 5410 5414 5418 5422 5426 5431 5435 5438
5339 5339 5338 5337 5336 5336 5336 5337 5338 5339 5341 5343 5345 5347 5349 5351 5353 5355 5357 5359 5361 5364 5367 5370 5372 5375 5379 5384 5389 5393 5397 5401 5404 5407 5411 5416 5420 5423
5331 5330 5329 5328 5327 5327 5327 5327 5328 5329 5330 5332 5334 5336 5338 5340 5341 5344 5346 5348 5350 5353 5355 5358 5360 5363 5367 5372 5376 5380 5383 5387 5390 5394 5397 5401 5405 5408
5322 5321 5320 5319 5319 5318 5318 5318 5319 5320 5321 5322 5323 5325 5327 5329 5331 5333 5335 5337 5339 5341 5344 5347 5350 5352 5355 5358 5362 5366 5370 5374 5378 5381 5385 5388 5392 5395
5314 5313 5312 5311 5310 5310 5310 5310 5310 5311 5312 5313 5314 5316 5318 5319 5321 5323 5324 5326 5329 5331 5334 5336 5338 5341 5343 5347 5351 5355 5359 5362 5365 5368 5372 5375 5378 5382
5307 5305 5304 5304 5303 5303 5302 5302 5302 5303 5304 5305 5306 5307 5309 5310 5312 5313 5315 5317 5319 5322 5324 5326 5328 5331 5333 5337 5340 5344 5348 5351 5354 5357 5360 5363 5366 5369